Location: Katowice
(50.2611°N, 19.0242°E)
Time: 15:37:14
(UTC+02:00)

Explorer 7 - Pass Details

Date: 31 August 2019
Orbit: 485 x 680 km, 50.3° (Epoch: 23 September)

Event Time Altitude Azimuth Distance (km) Brightness Sun altitude
Rises 13:54:27 0° 280° (W) 2,930 10.7 45.9°
Reaches altitude 10° 13:58:12 10° 250° (WSW) 1,968 10.3 45.6°
Maximum altitude 13:59:55 12° 228° (SW) 1,812 10.4 45.5°
Drops below altitude 10° 14:01:35 10° 205° (SSW) 1,915 10.6 45.4°
Sets 14:05:07 0° 174° (S) 2,754 10.9 45.1°
